Location: Aufkirchen
(47.9603°N, 11.3653°E)
Time: 11:32:18
(UTC+01:00)

Tiros 1 - Pass Details

Date: 28 November 2020
Orbit: 630 x 663 km, 48.4° (Epoch: 21 January)

Event Time Altitude Azimuth Distance (km) Brightness Sun altitude
Rises 20:51:19 0° 286° (WNW) 2,982 11.4 -43.6°
Enters shadow 20:53:02 - 282° (WNW) 2,329 10.7 -43.9°
Reaches altitude 10° 20:53:44 10° 280° (W) 2,063 - -44.0°
Maximum altitude 20:58:17 46° 208° (SSW) 874 - -44.7°
Drops below altitude 10° 21:02:46 10° 135° (SE) 2,035 - -45.4°
Sets 21:05:08 0° 130° (SE) 2,937 - -45.8°
